Regional Weather Roundup
Issued by NWS

Home | Current Version | Previous Version | Text Only | Print | Product List | Glossary On
Versions: 1 2 3 4 5 6 7 8 9 10 11 12 13 14 15 16 17 18 19 20 21 22 23 24 25 26 27 28 29 30 31 32 33 34 35 36 37 38 39 40 41 42 43 44 45 46 47 48 49 50
000
ASUS45 KABQ 231110
RWRNM
WEATHER ROUNDUP FOR NEW MEXICO
NATIONAL WEATHER SERVICE ALBUQUERQUE NM
400 AM MST SUN NOV 23 2014

NOTE: "FAIR" MEANS FEW OR NO CLOUDS BELOW 12,000 FEET AGL WITH NO
       SIGNIFICANT WEATHER OR OBSTRUCTIONS TO VISION.

      THIS PRODUCT IS RELEASED AS TWO VERSIONS.  ONE VERSION NEAR
      THE TOP OF THE HOUR CONTAINING PRELIMINARY DATA FROM ALBUQUERQUE
      AND OTHER STATIONS.  A FINAL VERSION WITH ADDITIONAL DATA IS
      ISSUED ABOUT 10 MINUTES AFTER THE HOUR.

NMZ501-503-504-510>518-231200-
NORTHWEST PLATEAU/NORTHCENTRAL MOUNTAINS

CITY           SKY/WX    TMP DP  RH WIND       PRES   REMARKS
FARMINGTON     CLOUDY    38  29  70 NW9       29.81R WCI  31
LOS ALAMOS     PTCLDY    38  19  46 W14G20    29.77S WCI  30
SANTA FE       PTCLDY    33  16  49 CALM      29.76F
TAOS           CLOUDY    36  25  64 S10       29.75F WCI  28
ANGEL FIRE     FAIR      30  21  69 W7G16     29.74F WCI  23

$$
NMZ402-403-502-505>509-231200-
WESTCENTRAL MOUNTAINS/SOUTHWEST MOUNTAINS

CITY           SKY/WX    TMP DP  RH WIND       PRES   REMARKS
GALLUP         CLEAR     35  18  49 SW13      29.88F WCI  26
GRANTS         PTCLDY    37  18  44 W15G23    29.86F WCI  28
SILVER CITY    CLEAR     43  18  36 NW16G22   29.92F

$$
NMZ407-409-411-412-231200-
SOUTHERN DESERTS

CITY           SKY/WX    TMP DP  RH WIND       PRES   REMARKS
LORDSBURG      FAIR      37  19  48 W8        29.95F WCI  31
DEMING         CLEAR     47  21  35 W16G25    29.90S
LAS CRUCES     CLEAR     45  18  34 W10       29.88R
HOLLOMAN AFB   PTCLDY    43  18  36 SE10      29.80S
ALAMOGORDO     PTCLDY    41  19  42 MISG      29.81F
T OR C         CLEAR     40  19  43 E5        29.83S

$$
NMZ519>523-231200-
CENTRAL VALLEYS/CENTRAL HIGHLANDS

CITY           SKY/WX    TMP DP  RH WIND       PRES   REMARKS
ALBUQUERQUE    PTCLDY    46  17  31 W15       29.79S
DOUBLE EAGLE   PTCLDY    40  17  39 W10       29.79F WCI  34
MORIARTY ARPT  FAIR      40  18  41 W16       29.78S WCI  31
CLINES CORNERS CLEAR     34  18  52 W20       29.74S WCI  23
BELEN          FAIR      46  19  34 W16       29.80F
SOCORRO        FAIR      39  18  42 SW5       29.81S

$$
NMZ524>526-539-540-231200-
SOUTHCENTRAL MOUNTAINS

CITY           SKY/WX    TMP DP  RH WIND       PRES   REMARKS
RUIDOSO        CLEAR     45  14  29 W18G25    29.82R

$$
NMZ527>531-231200-
NORTHEAST HIGHLANDS/NORTHEAST PLAINS

CITY           SKY/WX    TMP DP  RH WIND       PRES   REMARKS
LAS VEGAS      PTCLDY    41  20  43 NW16      29.67S
RATON          CLEAR     45  21  38 W16G29    29.60F
CLAYTON        MOCLDY    49  21  33 W17       29.51S

$$
NMZ532>537-231200-
EASTCENTRAL PLAINS

CITY           SKY/WX    TMP DP  RH WIND       PRES   REMARKS
TUCUMCARI        N/A     47  19  33 W13       29.59R
CANNON AFB     PTCLDY    50  18  27 W12       29.71F
CLOVIS AIRPORT PTCLDY    48  18  29 W17G23    29.61R

$$
NMZ028-029-538-231200-
SOUTHEAST PLAINS

CITY           SKY/WX    TMP DP  RH WIND       PRES   REMARKS
ROSWELL        PTCLDY    39  25  57 N5        29.68R
CARLSBAD       PTCLDY    59  17  19 W21G31    29.67R
HOBBS          PTCLDY    46  23  39 W8        29.68R


$$



USA.gov is the U.S. government's official web portal to all federal, state and local government web resources and services.